SCP
0 0 0 0 0 0 0 0 0 0 0 0 0 0 0 0 0 0 0 0 0 0 0 0 0 0 0 0 0 0 0 0 0 0 0 0 0 0 0 0 0 0 0
0 0 0 0 0 0 0 0 0 0 0 0 0 0 0 0 0 0 0 0 0 0 0 0 0 0 0 0 0 0 0 0 0 0 0 0 0 0 0 0 0 0 0
0 0 0 0 0 0 0 0 0 0 0 0 0 0 0 0 0 0 0 0 0 0 0 0 0 0 0 0 0 0 0 0 0 0 0 0 0 0 0 0 0 0 0
0 0 0 0 0 0 0 0 0 0 0 0 0 0 0 0 0 0 0 0 0 0 0 0 0 0 0 0 0 0 0 0 0 0 0 0 0 0 0 0 0 0 0
0 0 0 0 0 0 0 0 0 0 0 0 0 0 0 0 0 0 0 0 0 0 0 0 0 0 0 0 0 0 0 0 0 0 0 0 0 0 0 0 0 0 0
0 0 0 0 0 0 0 0 0 0 0 0 0 0 0 0 0 0 0 0 0 0 0 0 0 0 0 0 0 0 0 0 0 0 0 0 0 0 0 0 0 0 0
0 0 0 0 0 0 0 0 0 0 0 0 0 0 0 0 0 0 0 0 0 0 0 0 0 0 0 0 0 0 0 0 0 0 0 0 0 0 0 0 0 0 0
0 0 0 0 0 0 0 0 0 0 0 0 0 0 0 0 0 0 0 0 0 0 0 0 0 0 0 0 0 0 0 0 0 0 0 0 0 0 0 0 0 0 0
0 0 0 0 0 0 0 0 0 0 0 0 0 0 0 0 0 0 0 0 0 0 0 0 0 0 0 0 0 0 0 0 0 0 0 0 0 0 0 0 0 0 0
0 0 0 0 0 0 0 0 0 0 0 0 0 0 0 0 0 0 0 0 0 0 0 0 0 0 0 0 0 0 0 0 0 0 0 0 0 0 0 0 0 0 0
0 0 0 0 0 0 0 0 0 0 0 0 0 0 0 0 0 0 0 0 0 0 0 0 0 0 0 0 0 0 0 0 0 0 0 0 0 0 0 0 0 0 0
0 0 0 0 0 0 0 0 0 0 0 0 0 0 0 0 0 0 0 0 0 0 0 0 0 0 0 0 0 0 0 0 0 0 0 0 0 0 0 0 0 0 0
0 0 0 0 0 0 0 0 0 0 0 0 0 0 0 0 0 0 0 0 0 0 0 0 0 0 0 0 0 0 0 0 0 0 0 0 0 0 0 0 0 0 0
0 0 0 0 0 0 0 0 0 0 0 0 0 0 0 0 0 0 0 0 0 0 0 0 0 0 0 0 0 0 0 0 0 0 0 0 0 0 0 0 0 0 0
0 0 0 0 0 0 0 0 0 0 0 0 0 0 0 0 0 0 0 0 0 0 0 0 0 0 0 0 0 0 0 0 0 0 0 0 0 0 0 0 0 0 0
0 0 0 0 0 0 0 0 0 0 0 0 0 0 0 0 0 0 0 0 0 0 0 0 0 0 0 0 0 0 0 0 0 0 0 0 0 0 0 0 0 0 0
0 0 0 0 0 0 0 0 0 0 0 0 0 0 0 0 0 0 0 0 0 0 0 0 0 0 0 0 0 0 0 0 0 0 0 0 0 0 0 0 0 0 0
0 0 0 0 0 0 0 0 0 0 0 0 0 0 0 0 0 0 0 0 0 0 0 0 0 0 0 -0 -0 0 0 0 0 0 0 0 0 0 0 0 0 0 0
0 0 0 0 0 0 0 0 0 0 0 0 0 0 0 0 0 0 0 0 0 0 0 0 0 0 0 0 -0 0 0 0 0 0 0 0 0 0 0 0 0 0 0
0 0 0 0 0 0 0 0 0 0 0 0 0 0 0 0 0 0 0 0 0 0 0 0 0 0 0 0 0 0 0 0 0 0 0 0 0 0 0 0 0 0 0
0 0 0 0 0 0 0 0 0 0 0 0 0 0 0 0 0 0 0 0 0 0 0 0 0 0 0 0 0 0 0 0 0 0 0 0 0 0 0 0 0 0 0
0 0 0 0 0 0 0 0 0 0 0 0 0 0 0 0 0 0 0 0 0 0 0 0 0 0 0 0 0 0 0 0 -0 0 0 0 0 0 0 0 0 0 0
0 0 0 0 0 0 0 0 0 0 0 0 0 0 0 0 0 0 0 0 0 0 0 0 0 0 0 0 0 0 0 0 -0 -0 0 0 0 0 0 0 0 0 0
0 0 0 0 0 0 0 0 0 0 0 0 0 0 0 0 0 0 0 0 0 0 0 0 0 0 0 0 0 0 0 0 0 -0 -0 0 0 0 0 0 0 0 0
0 0 0 0 0 0 0 0 0 0 0 0 0 0 0 0 0 0 0 0 0 0 0 0 0 0 0 0 0 0 0 0 0 0 0 0 0 0 0 0 0 0 0
0 0 0 0 0 0 0 0 0 0 0 0 0 0 0 0 0 0 0 0 0 0 0 0 0 0 0 0 0 0 0 0 0 0 0 0 0 0 0 0 0 0 0
Wind_Speed
1 2 2 2 2 2 3 3 2 3 3 3 3 4 3 4 4 4 3 6 7 7 8 8 8 8 9 9 9 9 9 9 8 8 8 8 8 8 9 9 9 9 10
1 1 2 2 2 2 3 2 2 2 2 2 3 4 3 3 4 4 4 4 6 6 6 7 6 7 8 8 9 9 8 8 8 7 7 7 7 7 7 8 7 8 8
1 1 2 2 2 2 3 2 2 2 2 3 3 3 3 3 3 4 4 3 3 5 6 6 6 6 6 7 7 7 7 7 7 7 7 6 6 6 6 6 6 6 7
0 1 2 2 2 3 3 3 3 3 3 3 3 3 2 2 3 3 3 3 3 3 4 5 5 5 5 6 6 6 6 6 6 6 6 6 5 5 5 5 5 5 5
0 1 1 2 3 3 3 3 3 3 3 3 3 3 2 2 2 2 2 2 2 3 3 4 4 4 4 4 5 5 5 5 5 5 5 5 4 4 4 4 3 3 3
0 1 2 2 2 3 3 4 4 3 3 3 3 3 2 1 1 1 1 2 2 2 3 3 3 2 3 3 3 4 4 5 4 4 5 4 4 3 3 3 3 3 3
1 1 2 2 3 3 4 5 4 5 3 3 3 2 2 2 1 1 1 1 1 1 2 2 2 2 2 3 2 2 3 3 4 4 4 4 4 3 2 2 2 2 2
1 1 3 2 3 3 4 4 4 3 3 3 3 3 2 0 1 0 0 1 1 1 2 2 2 2 2 2 1 2 2 2 3 4 4 4 3 3 2 2 2 1 1
2 1 2 3 3 4 4 5 5 4 4 3 2 3 3 3 1 1 1 1 1 1 1 2 2 2 2 2 2 2 1 1 2 3 4 4 4 3 3 2 2 1 1
2 2 2 3 3 3 4 5 4 3 5 5 3 1 2 3 3 2 1 1 2 1 1 1 2 2 2 2 2 2 2 2 3 3 3 3 4 4 3 2 2 2 2
2 2 2 2 3 3 4 5 5 4 4 4 4 2 1 1 2 3 2 2 1 2 2 2 2 2 2 2 2 2 2 2 4 4 4 4 4 4 4 4 3 3 2
1 2 2 2 3 3 4 5 5 5 4 3 3 2 2 2 3 2 3 3 2 2 2 2 2 2 2 2 2 2 3 3 4 4 4 4 4 5 5 5 4 3 3
2 3 2 2 3 3 4 4 4 4 4 5 4 3 2 2 1 2 3 3 2 1 1 2 2 2 2 2 2 3 3 3 3 4 5 5 4 4 5 5 5 4 4
3 3 3 3 3 4 4 4 4 4 4 4 4 4 2 2 2 2 3 3 2 2 2 2 2 2 2 2 3 4 3 3 4 4 5 4 3 3 3 4 4 4 4
2 3 3 4 3 4 5 5 4 4 4 4 4 4 3 2 2 2 2 3 4 3 4 3 2 2 2 2 3 2 2 3 4 4 4 3 3 3 3 4 4 3 3
3 3 4 4 4 4 5 5 4 4 5 5 4 4 3 2 2 2 2 2 2 3 3 2 2 1 2 1 2 2 3 2 3 4 4 4 4 4 4 4 4 3 3
3 4 5 4 5 5 6 5 5 5 6 5 4 5 4 4 3 2 2 2 2 2 2 2 1 1 2 2 1 2 2 3 3 4 4 4 4 4 4 4 4 4 3
4 4 4 5 5 5 6 6 6 6 6 6 6 5 5 4 4 3 3 3 2 2 3 2 2 1 2 3 2 2 2 2 2 4 5 4 4 4 4 4 4 4 4
4 4 4 4 5 6 6 6 6 6 6 6 6 6 6 5 5 4 3 3 2 2 2 3 2 2 1 1 1 1 1 2 2 3 4 4 4 4 4 4 4 4 4
4 4 4 4 5 5 6 6 5 6 5 5 5 6 6 6 6 5 4 4 3 2 2 2 2 2 1 1 2 2 1 2 2 1 2 3 3 4 4 5 5 5 5
4 4 3 3 4 5 5 5 5 5 6 5 5 5 5 6 7 6 5 5 4 3 3 3 2 2 2 2 3 2 2 1 2 1 1 2 2 2 3 4 5 5 5
3 3 3 4 5 4 5 7 6 5 5 6 6 5 5 6 7 7 7 7 7 6 5 4 3 4 4 3 3 2 2 1 2 1 1 2 2 3 3 3 5 6 6
3 3 4 4 5 5 7 8 8 5 5 6 6 6 5 5 6 5 5 6 6 8 9 6 6 6 5 5 4 3 3 3 3 2 1 3 2 3 3 4 6 6 6
3 4 3 4 4 6 8 9 8 6 5 5 6 6 6 5 6 6 5 5 5 5 7 5 5 5 4 4 5 4 4 2 1 2 2 3 2 3 3 3 5 6 6
3 3 3 4 4 5 9 10 8 5 4 5 5 5 6 6 8 8 6 6 5 4 5 6 6 5 6 6 5 3 2 2 2 2 2 2 2 3 2 3 4 5 6
3 3 3 3 4 4 8 10 9 5 5 4 4 5 6 7 8 9 7 6 6 5 4 3 3 3 4 5 6 5 5 4 2 3 2 2 1 1 2 2 2 2 3
Wind_Direction
160 157 158 139 149 142 147 154 154 142 130 126 111 97 85 91 100 98 98 92 97 106 113 114 113 114 115 114 109 104 102 100 102 103 101 95 89 85 87 83 79 74 71
138 143 149 139 154 150 153 157 145 123 118 114 108 103 97 92 101 109 112 98 92 98 105 112 117 120 120 117 113 110 107 104 105 107 105 102 98 94 91 87 81 75 72
148 143 154 151 167 160 154 143 127 114 113 111 110 106 99 89 90 102 109 115 107 94 101 108 111 121 127 125 121 118 114 111 110 110 107 104 103 103 98 91 85 79 74
174 145 160 169 171 160 155 148 143 129 115 109 105 98 95 93 88 94 100 111 119 116 101 103 101 110 121 128 127 126 125 121 118 116 113 108 104 107 103 96 90 84 77
290 142 164 183 173 163 155 152 141 135 128 124 120 109 97 95 96 95 102 105 116 130 134 124 111 103 108 131 133 131 132 135 134 133 129 123 115 115 116 108 102 92 83
270 167 176 180 172 163 158 150 144 135 133 132 120 101 82 84 86 102 118 111 112 132 138 144 140 132 115 108 123 129 137 146 144 147 143 137 130 127 121 113 110 100 89
241 203 179 177 177 163 162 156 149 142 136 126 113 103 55 47 75 80 107 117 114 125 127 130 136 141 152 134 108 124 133 155 160 156 152 147 138 136 146 140 125 103 81
222 223 188 181 183 165 157 157 153 152 150 149 145 139 139 81 322 187 128 139 145 145 136 130 132 137 140 147 130 132 142 165 175 171 168 168 166 170 165 171 164 147 119
209 225 221 183 181 174 173 167 161 167 167 173 167 154 157 177 170 215 213 160 148 155 169 166 150 145 141 135 150 175 160 181 184 182 182 187 192 197 205 203 200 201 192
211 219 242 199 185 175 176 177 167 168 168 177 187 209 179 147 151 158 211 201 181 187 205 183 166 161 147 144 134 128 164 198 206 205 197 198 208 211 213 218 218 226 231
199 218 245 220 195 183 177 178 173 170 176 179 180 187 180 169 159 151 182 201 208 211 217 198 178 173 159 156 161 159 173 200 213 212 214 213 218 223 225 236 240 241 244
217 220 229 218 202 194 182 183 181 178 179 180 180 176 173 176 188 166 172 189 203 220 219 202 178 177 173 172 174 167 181 201 216 216 225 227 229 234 234 239 241 241 244
220 220 222 215 202 199 187 181 179 177 178 179 181 188 189 192 195 167 155 177 189 214 210 218 194 180 178 172 181 180 195 205 223 224 230 234 238 240 241 240 241 244 249
223 213 214 208 201 196 192 184 181 182 181 182 186 186 184 197 189 180 171 165 172 217 216 220 216 190 186 177 188 178 196 208 223 230 235 243 246 246 252 245 254 260 264
227 217 215 206 204 197 189 182 185 187 184 184 186 187 185 200 195 194 180 171 170 195 223 216 204 206 192 176 176 181 193 210 214 226 234 240 249 247 243 245 262 271 278
226 223 216 208 203 200 189 184 188 191 185 187 184 181 190 192 190 185 181 190 181 181 210 209 207 221 190 181 181 193 198 208 208 225 231 234 238 238 240 244 246 256 267
230 227 216 208 207 204 192 188 193 191 190 189 188 186 192 183 186 193 190 193 194 175 209 239 222 215 187 181 193 209 205 202 210 227 230 233 236 237 238 235 235 243 257
241 232 220 212 213 209 196 193 196 197 193 192 192 189 195 189 189 192 194 199 198 188 187 213 233 233 214 191 187 199 214 221 213 227 229 235 236 241 242 238 239 239 249
245 230 219 213 218 213 200 201 200 199 198 196 193 191 194 190 195 194 194 194 195 193 187 192 214 231 221 195 189 218 221 234 238 229 228 234 243 246 246 241 238 242 249
244 231 223 219 222 211 197 196 198 197 196 198 197 194 192 194 195 192 193 193 185 180 179 182 197 215 218 209 178 201 247 253 256 244 243 249 243 243 244 243 241 244 247
251 239 226 225 224 210 193 189 193 196 191 194 194 195 196 196 199 197 195 185 181 183 186 188 203 212 212 199 202 200 229 265 273 232 242 248 235 233 232 237 242 247 253
256 243 226 229 223 217 196 198 200 196 193 193 194 194 196 196 199 203 205 199 193 190 194 199 210 215 221 213 201 197 200 232 257 226 246 266 232 241 239 231 245 251 254
258 249 230 229 226 218 203 202 207 198 196 196 192 189 195 200 197 194 202 209 214 217 212 203 205 215 216 207 195 201 212 227 247 225 238 262 242 254 260 256 247 246 252
257 251 242 233 229 221 208 204 202 199 198 199 196 193 191 192 198 192 194 203 214 220 220 211 208 216 217 204 202 206 210 227 278 246 204 250 249 264 278 261 250 249 254
262 254 251 241 231 225 212 204 198 192 195 199 199 198 193 194 201 199 194 197 211 226 234 227 223 225 223 213 201 179 187 206 253 254 218 222 262 287 273 258 258 258 264
258 251 253 243 234 229 213 200 196 189 189 194 197 200 203 204 203 201 198 195 208 215 209 223 230 236 221 209 205 202 199 211 228 245 213 195 232 306 290 262 255 258 263